カタログに戻る

CZ-6A DEB

運用中PO
NORAD 61345·DEBRIS·🇨🇳 China

打ち上げ Aug 6, 2024 から Taiyuan Satellite Launch Center

Loading…

次のパス (今後24時間)

TLE

最新Source: Space-Track

元期: Sep 14, 2026, 20:56 UTC

1 61345U 24140VJ  26257.87243281  .00001402  00000-0  35786-3 0  9996
2 61345  88.6462 227.4696 0106684 274.5700  84.3325 14.46626708107097

AllMySatでCZ-6A DEBをリアルタイム追跡

Download on the App Store